Weather History for Watsonville, CA

Change the Weather History Date:

Monday, March 25, 2013

  Actual Average Record
Temperature  
Mean Temperature 51 °F 54 °F  
Max Temperature 60 °F 64 °F 70 °F (2003)
Min Temperature 41 °F 43 °F 38 °F (2009)
Degree Days  
Heating Degree Days 14    
Month to date heating degree days 296  
Since 1 July heating degree days 2469  
Cooling Degree Days 0    
Month to date cooling degree days 0  
Year to date cooling degree days 0  
Moisture  
Dew Point 43 °F    
Average Humidity 78    
Maximum Humidity 100    
Minimum Humidity 55    
Precipitation  
Precipitation 0.00 in - 2.12 in (1991)
Month to date precipitation 0.41  
Year to date precipitation 1.56  
Since 1 July precipitation 12.50  
Sea Level Pressure  
Sea Level Pressure 30.02 in    
Wind  
Wind Speed 4 mph (ESE)    
Max Wind Speed 12 mph    
Max Gust Speed 35 mph    
Visibility 5 miles    
Events Fog    
T = Trace of Precipitation, MM = Missing Value Source: NWS Daily Summary

Daily Weather History Graph

Daily Weather History Graph

Search for Another Location

Airport:

Trip Planner

Search our weather history database for the weather conditions in past years. The results will help you decide how hot, cold, wet, or windy it might be!

Date:

Astronomy

Mar. 25, 2013 Rise Set
Actual Time 7:02 AM PDT 7:23 PM PDT
Civil Twilight 6:36 AM PDT 7:49 PM PDT
Nautical Twilight 6:06 AM PDT 8:20 PM PDT
Astronomical Twilight 5:35 AM PDT 8:51 PM PDT
Moon 6:02 PM PDT (3/25) 5:47 AM PDT (3/25)
Length of Visible Light 13h 12m
Length of Day
12h 20m
Waxing Gibbous, 97% of the Moon is Illuminated
Mar 25
Waxing Gibbous
Mar 27
Full
Apr 2
Last Quarter
Apr 10
New
Apr 18
First Quarter

Hourly Weather History & Observations

Time (PDT) Temp. Windchill Dew Point Humidity Pressure Visibility Wind Dir Wind Speed Gust Speed Precip Events Conditions
12:53 AM 46.0 °F 44.8 °F 43.0 °F 89% 30.02 in 7.0 mi NW 3.5 mph - N/A   Clear
1:53 AM 43.0 °F - 41.0 °F 93% 30.02 in 5.0 mi Calm Calm - N/A   Clear
2:53 AM 43.0 °F - 41.0 °F 93% 30.02 in 6.0 mi Calm Calm - N/A   Clear
3:53 AM 44.1 °F - 41.0 °F 89% 30.01 in 6.0 mi Calm Calm - N/A   Clear
4:53 AM 42.1 °F - 39.9 °F 92% 30.00 in 6.0 mi Calm Calm - N/A   Clear
5:53 AM 43.0 °F - 39.9 °F 89% 30.02 in 6.0 mi Calm Calm - N/A   Clear
6:00 AM 42.8 °F 41.1 °F 39.2 °F 87% 30.02 in 6.0 mi NW 3.5 mph - N/A   Scattered Clouds
6:08 AM 42.8 °F - 41.0 °F 93% 30.01 in 6.0 mi Calm Calm - N/A   Mostly Cloudy
6:53 AM 42.1 °F - 39.9 °F 92% 30.02 in 6.0 mi Calm Calm - N/A   Overcast
7:18 AM 44.6 °F - 42.8 °F 93% 30.03 in 1.8 mi Calm Calm - N/A   Overcast
7:25 AM 42.8 °F 41.1 °F 42.8 °F 100% 30.02 in 0.8 mi ENE 3.5 mph - N/A   Overcast
7:41 AM 44.6 °F 43.1 °F 42.8 °F 93% 30.02 in 1.8 mi NE 3.5 mph - N/A   Overcast
7:50 AM 44.6 °F - 42.8 °F 93% 30.03 in 0.8 mi Calm Calm - N/A   Overcast
7:53 AM 44.1 °F - 43.0 °F 96% 30.03 in 0.5 mi Calm Calm - N/A Fog Fog
8:20 AM 44.6 °F - 42.8 °F 93% 30.03 in 0.2 mi Calm Calm - N/A Fog Fog
8:32 AM 44.6 °F - 44.6 °F 100% 30.04 in 0.5 mi Calm Calm - N/A Fog Fog
8:41 AM 44.6 °F - 42.8 °F 93% 30.04 in 0.2 mi Calm Calm - N/A Fog Fog
8:53 AM 45.0 °F - 44.1 °F 97% 30.04 in 0.2 mi Calm Calm - N/A Fog Fog
9:01 AM 44.6 °F - 44.6 °F 100% 30.03 in 0.5 mi Calm Calm - N/A Fog Fog
9:20 AM 44.6 °F - 44.6 °F 100% 30.04 in 1.2 mi Calm Calm - N/A   Overcast
9:25 AM 44.6 °F - 44.6 °F 100% 30.03 in 2.0 mi Calm Calm - N/A   Overcast
9:35 AM 46.4 °F - 44.6 °F 93% 30.03 in 3.0 mi Calm Calm - N/A   Overcast
9:53 AM 46.9 °F - 45.0 °F 93% 30.04 in 5.0 mi Calm Calm - N/A   Mostly Cloudy
10:06 AM 48.2 °F - 44.6 °F 87% 30.03 in 6.0 mi Calm Calm - N/A   Partly Cloudy
10:53 AM 52.0 °F - 46.0 °F 80% 30.04 in 7.0 mi Calm Calm - N/A   Clear
11:53 AM 54.0 °F - 48.0 °F 80% - 6.0 mi WSW 9.2 mph - N/A   Haze
12:53 PM 59.0 °F - 48.0 °F 67% - 8.0 mi SSW 6.9 mph - N/A   Clear
1:53 PM 57.0 °F - 46.9 °F 69% - 8.0 mi SSW 8.1 mph - N/A   Clear
2:53 PM 59.0 °F - 45.0 °F 60% 29.99 in 10.0 mi South 8.1 mph - N/A   Clear
3:53 PM 57.9 °F - 44.1 °F 60% 29.99 in 10.0 mi South 6.9 mph - N/A   Clear
4:53 PM 57.0 °F - 41.0 °F 55% 29.97 in 10.0 mi South 6.9 mph - N/A   Clear
5:53 PM 55.9 °F - 42.1 °F 60% 29.98 in 10.0 mi ESE 5.8 mph - N/A   Clear
6:53 PM 53.1 °F - 45.0 °F 74% 29.99 in 9.0 mi East 9.2 mph - N/A   Clear
7:53 PM 50.0 °F - 44.1 °F 80% 29.99 in 10.0 mi ENE 8.1 mph - N/A   Clear
8:53 PM 48.9 °F - 43.0 °F 80% 30.00 in 9.0 mi East 10.4 mph - N/A   Clear
9:53 PM 48.0 °F - 43.0 °F 83% 30.02 in 10.0 mi Calm Calm - N/A   Clear
10:53 PM 48.0 °F - 42.1 °F 80% 30.03 in 10.0 mi NNE 3.5 mph - N/A   Clear
11:53 PM 46.9 °F - 42.1 °F 83% 30.02 in 9.0 mi Calm Calm - N/A   Clear